Regional Weather Roundup
Issued by NWS

Home | Current Version | Previous Version | Text Only | Print | Product List | Glossary On
Versions: 1 2 3 4 5 6 7 8 9 10 11 12 13 14 15 16 17 18 19 20 21 22 23 24 25 26 27 28 29 30 31 32 33 34 35 36 37 38 39 40 41 42 43 44 45 46 47 48 49 50
000
ASUS43 KOAX 180610
RWRNE

WEATHER ROUNDUP FOR NEBRASKA
NATIONAL WEATHER SERVICE OMAHA NE
100 AM CDT FRI APR 18 2014

NOTES: SATELLITE DATA IS BEING USED TO AUGMENT CLOUD COVER ABOVE
       12000 FEET.
       "FAIR" INDICATES FEW OR NO CLOUDS BELOW 12,000 FEET WITH NO
       SIGNIFICANT WEATHER AND/OR OBSTRUCTIONS TO VISIBILITY.

  * THESE STATIONS DO NOT REPORT WEATHER SUCH AS RAIN...SNOW OR FOG.

NEZ001>004-019>022-054>056-180700-
NEBRASKA PANHANDLE

CITY           SKY/WX    TMP DP  RH WIND       PRES   REMARKS
SCOTTSBLUFF    CLEAR     48  34  58 SE10      29.95S
6HR MIN TEMP:  42; 6HR MAX TEMP:  59;

ALLIANCE       CLEAR     43  37  79 S15       29.96F
6HR MIN TEMP:  43; 6HR MAX TEMP:  54;

CHADRON        CLEAR     48  38  68 S24G38    29.90F
6HR MIN TEMP:  47; 6HR MAX TEMP:  55;

KIMBALL        PTCLDY    43  33  65 S13       29.98S
SIDNEY         CLEAR     44  36  73 S18       30.02S
6HR MIN TEMP:  44; 6HR MAX TEMP:  62;

$$

NEZ057>060-069>072-079>082-180700-
SOUTHWEST NEBRASKA

CITY           SKY/WX    TMP DP  RH WIND       PRES   REMARKS
NORTH PLATTE   CLEAR     42  32  67 SE8       30.12F
6HR MIN TEMP:  41; 6HR MAX TEMP:  54;

IMPERIAL       CLEAR     42  37  82 S16       30.10S
6HR MIN TEMP:  42; 6HR MAX TEMP:  56;

LEXINGTON      PTCLDY    42  32  67 S13       30.17S
MCCOOK         CLEAR     42  37  82 S8        30.16S
6HR MIN TEMP:  41; 6HR MAX TEMP:  56;

OGALLALA       CLEAR     46  37  73 S23G32    30.05S
$$

NEZ005>010-023>029-035>040-094-180700-
NORTH CENTRAL NEBRASKA

CITY           SKY/WX    TMP DP  RH WIND       PRES   REMARKS
VALENTINE      PTCLDY    43  31  62 S18       30.06F
6HR MIN TEMP:  42; 6HR MAX TEMP:  54;

AINSWORTH      PTCLDY    42  30  61 SE13      30.10F
BROKEN BOW     CLEAR     36  29  75 SE9       30.16R WCI  29
6HR MIN TEMP:  36; 6HR MAX TEMP:  51;

O`NEILL        CLEAR     38  22  52 SE6       30.18S WCI  34
ORD            CLEAR     40  27  59 SE5       30.18S
6HR MIN TEMP:  40; 6HR MAX TEMP:  52;

THEDFORD       CLEAR     43  32  65 S13       30.10F
$$

NEZ041-046>049-061>064-073>077-083>087-180700-
SOUTH CENTRAL NEBRASKA

CITY           SKY/WX    TMP DP  RH WIND       PRES   REMARKS
GRAND ISLAND   FAIR      42  28  57 S9        30.21F
6HR MIN TEMP:  42; 6HR MAX TEMP:  54;

AURORA         FAIR      39  28  64 SE7       30.22S WCI  34
HASTINGS       FAIR      42  27  55 S7        30.20F
6HR MIN TEMP:  42; 6HR MAX TEMP:  54;

HEBRON         FAIR      38  28  67 S7        30.25R WCI  33
HOLDREGE       FAIR      40  29  66 S12       30.18F WCI  32
KEARNEY *      FAIR      39  28  65 S9        30.19F WCI  33
YORK           FAIR      37  27  65 SE6       30.24S WCI  33
$$

NEZ011>018-030>034-042>045-180700-
NORTHEAST NEBRASKA

CITY           SKY/WX    TMP DP  RH WIND       PRES   REMARKS
NORFOLK        FAIR      35  24  64 SE7       30.22F WCI  29
6HR MIN TEMP:  35; 6HR MAX TEMP:  52;

ALBION         FAIR      34  24  66 CALM      30.21R
BLAIR          FAIR      44  24  45 SE5       30.25S
COLUMBUS *     FAIR      34  21  60 CALM      30.24F
FREMONT        FAIR      39  26  59 CALM      30.26S
TEKAMAH        FAIR      34  22  61 CALM      30.27R
6HR MIN TEMP:  34; 6HR MAX TEMP:  55;

$$

NEZ050>053-065>068-078-088>093-180700-
SOUTHEAST NEBRASKA

CITY           SKY/WX    TMP DP  RH WIND       PRES   REMARKS
LINCOLN        FAIR      38  26  62 CALM      30.27S
6HR MIN TEMP:  35; 6HR MAX TEMP:  56;

OMAHA EPPLEY   FAIR      37  29  72 N3        30.27S
6HR MIN TEMP:  35; 6HR MAX TEMP:  55;

BEATRICE       FAIR      41  28  60 SE5       30.26S
FALLS CITY     FAIR      37  28  70 E5        30.27S WCI  33
6HR MIN TEMP:  35; 6HR MAX TEMP:  53;

NEBRASKA CITY  FAIR      43  28  55 S5        30.27S
PLATTSMOUTH    FAIR      43  24  47 SE3       30.26S
$$

NEZ044-045-051>053-067-180700-
OMAHA AREA

CITY           SKY/WX    TMP DP  RH WIND       PRES   REMARKS
OMAHA EPPLEY   FAIR      37  29  72 N3        30.27S
6HR MIN TEMP:  35; 6HR MAX TEMP:  55;

BLAIR          FAIR      44  24  45 SE5       30.25S
FREMONT        FAIR      39  26  59 CALM      30.26S
MILLARD        FAIR      38  27  66 CALM      30.26S
OFFUTT AFB     FAIR      30  29  93 CALM      30.26S
PLATTSMOUTH    FAIR      43  24  47 SE3       30.26S
WAHOO          FAIR      35  24  62 CALM      30.26S
$$



USA.gov is the U.S. government's official web portal to all federal, state and local government web resources and services.